Location: Ikejouine
(32.5142°N, 5.4699°W)
Time: 19:21:37
(UTC+00:00)

SL-8 R/B - Pass Details

Date: 09 April 2020
Orbit: 656 x 667 km, 48.4° (Epoch: 27 May)

Event Time Altitude Azimuth Distance (km) Brightness Sun altitude
Rises 20:00:53 0° 305° (NW) 2,978 8.6 -15.7°
Reaches altitude 10° 20:03:16 10° 302° (WNW) 2,063 7.5 -16.2°
Maximum altitude 20:07:56 57° 224° (SW) 766 4.1 -17.1°
Enters shadow 20:10:34 25° 154° (SSE) 1,329 4.8 -17.6°
